Weather History for Dayton Wright, OH

Change the Weather History Date:

Tuesday, July 23, 2013

  Actual Average (KFFO) Record (KFFO)
Temperature  
Mean Temperature 76 °F -  
Max Temperature 86 °F 82 °F 97 °F (2012)
Min Temperature 66 °F 61 °F 56 °F (2007)
Cooling Degree Days 11    
Growing Degree Days 26 (Base 50)    
Moisture  
Dew Point 68 °F    
Average Humidity 84    
Maximum Humidity 100    
Minimum Humidity 58    
Precipitation  
Precipitation 0.01 in - - ()
Sea Level Pressure  
Sea Level Pressure 29.80 in    
Wind  
Wind Speed 3 mph (WSW)    
Max Wind Speed 14 mph    
Max Gust Speed 21 mph    
Visibility 5 miles    
Events Fog , Rain , Thunderstorm    
Averages and records for this station are not official NWS values.
T = Trace of Precipitation, MM = Missing Value Source: NWS Daily Summary

Daily Weather History Graph

Daily Weather History Graph

Search for Another Location

Airport:

Trip Planner

Search our weather history database for the weather conditions in past years. The results will help you decide how hot, cold, wet, or windy it might be!

Date:

Astronomy

Jul. 23, 2013 Rise Set
Actual Time 6:28 AM EDT 8:57 PM EDT
Civil Twilight 5:57 AM EDT 9:28 PM EDT
Nautical Twilight 5:19 AM EDT 10:06 PM EDT
Astronomical Twilight 4:36 AM EDT 10:49 PM EDT
Moon 9:25 PM EDT (7/23) 7:35 AM EDT (7/23)
Length of Visible Light 15h 30m
Length of Day
14h 29m
Full, 99% of the Moon is Illuminated
Jul 23
Full
Jul 29
Last Quarter
Aug 6
New
Aug 14
First Quarter
Aug 20
Full

Hourly Weather History & Observations

Time (EDT) Temp. Heat Index Dew Point Humidity Pressure Visibility Wind Dir Wind Speed Gust Speed Precip Events Conditions
12:41 AM 69.8 °F - 68.0 °F 94% 29.83 in 0.8 mi Calm Calm - N/A   Clear
12:53 AM 70.0 °F - 69.1 °F 97% 29.81 in 1.5 mi Calm Calm - N/A   Clear
1:06 AM 69.8 °F - 68.0 °F 94% 29.83 in 0.5 mi Calm Calm - N/A Fog Fog
1:13 AM 69.8 °F - 68.0 °F 94% 29.84 in 0.2 mi Calm Calm - N/A Fog Fog
1:20 AM 69.8 °F - 68.0 °F 94% 29.84 in 1.0 mi Calm Calm - N/A   Mist
1:22 AM 69.8 °F - 68.0 °F 94% 29.84 in 2.5 mi Calm Calm - N/A   Partly Cloudy
1:29 AM 69.8 °F - 69.8 °F 100% 29.83 in 3.0 mi Calm Calm - N/A   Partly Cloudy
1:31 AM 69.8 °F - 68.0 °F 94% 29.83 in 1.8 mi Calm Calm - N/A   Partly Cloudy
1:36 AM 69.8 °F - 68.0 °F 94% 29.83 in 0.8 mi South 3.5 mph - N/A   Mist
1:43 AM 69.8 °F - 68.0 °F 94% 29.83 in 0.2 mi Calm Calm - N/A Fog Fog
1:53 AM 69.1 °F - 68.0 °F 96% 29.82 in 0.5 mi Calm Calm - N/A Fog Fog
2:01 AM 69.8 °F - 68.0 °F 94% 29.84 in 0.8 mi Calm Calm - N/A   Mist
2:05 AM 69.8 °F - 68.0 °F 94% 29.84 in 1.2 mi Calm Calm - N/A   Partly Cloudy
2:12 AM 69.8 °F - 68.0 °F 94% 29.84 in 3.0 mi Calm Calm - N/A   Clear
2:53 AM 70.0 °F - 68.0 °F 93% 29.82 in 6.0 mi Calm Calm - N/A   Clear
3:53 AM 69.1 °F - 68.0 °F 96% 29.81 in 5.0 mi Calm Calm - N/A   Clear
4:29 AM 66.2 °F - 66.2 °F 100% 29.83 in 2.0 mi South 4.6 mph - N/A   Partly Cloudy
4:31 AM 66.2 °F - 66.2 °F 100% 29.83 in 1.0 mi SSW 4.6 mph - N/A   Mist
4:33 AM 66.2 °F - 66.2 °F 100% 29.83 in 0.5 mi SSW 4.6 mph - N/A Fog Fog
4:53 AM 66.9 °F - 66.0 °F 97% 29.81 in 0.2 mi South 3.5 mph - N/A Fog Fog
5:53 AM 66.9 °F - 66.0 °F 97% 29.80 in 0.5 mi Calm Calm - 0.01 in Fog Fog
6:04 AM 66.2 °F - 66.2 °F 100% 29.82 in 1.0 mi South 3.5 mph - N/A   Mist
6:15 AM 66.2 °F - 66.2 °F 100% 29.82 in 0.5 mi South 4.6 mph - N/A Fog Fog
6:53 AM 66.9 °F - 66.9 °F 100% 29.80 in 0.2 mi SSW 3.5 mph - N/A Fog Fog
7:34 AM 69.8 °F - 68.0 °F 94% 29.82 in 1.0 mi South 4.6 mph - N/A   Overcast
7:53 AM 69.1 °F - 68.0 °F 96% 29.79 in 2.0 mi South 5.8 mph - N/A   Mostly Cloudy
8:03 AM 69.8 °F - 68.0 °F 94% 29.81 in 2.5 mi South 6.9 mph - N/A   Scattered Clouds
8:21 AM 69.8 °F - 69.8 °F 100% 29.81 in 3.0 mi South 8.1 mph - N/A   Clear
8:53 AM 73.0 °F - 70.0 °F 90% 29.81 in 6.0 mi WSW 6.9 mph - N/A   Clear
9:53 AM 75.9 °F - 70.0 °F 82% 29.80 in 10.0 mi SW 8.1 mph - N/A   Partly Cloudy
10:53 AM 78.1 °F - 70.0 °F 76% 29.81 in 10.0 mi West 8.1 mph - N/A   Scattered Clouds
11:40 AM 80.6 °F 84.6 °F 71.6 °F 74% 29.83 in 10.0 mi WSW 9.2 mph - N/A   Mostly Cloudy
11:53 AM 81.0 °F 85.2 °F 72.0 °F 74% 29.81 in 10.0 mi SW 10.4 mph - N/A   Mostly Cloudy
12:06 PM 82.4 °F 87.2 °F 71.6 °F 70% 29.83 in 10.0 mi West 12.7 mph 18.4 mph N/A   Mostly Cloudy
12:36 PM 84.2 °F 88.4 °F 69.8 °F 62% 29.82 in 10.0 mi West 6.9 mph - N/A Thunderstorm Partly Cloudy
12:53 PM 84.0 °F 88.4 °F 70.0 °F 63% 29.79 in 10.0 mi WSW 8.1 mph - N/A   Partly Cloudy
1:53 PM 84.9 °F 89.4 °F 70.0 °F 61% 29.76 in 10.0 mi West 11.5 mph 17.3 mph N/A   Scattered Clouds
2:07 PM 86.0 °F 90.4 °F 69.8 °F 58% 29.78 in 10.0 mi West 12.7 mph 18.4 mph N/A Thunderstorm Scattered Clouds
2:22 PM 84.2 °F 88.4 °F 69.8 °F 62% 29.78 in 10.0 mi West 10.4 mph 17.3 mph N/A   Mostly Cloudy
2:53 PM 82.9 °F 86.5 °F 69.1 °F 63% 29.75 in 10.0 mi West 5.8 mph - N/A   Scattered Clouds
3:03 PM 80.6 °F 83.9 °F 69.8 °F 70% 29.78 in 10.0 mi NW 12.7 mph 19.6 mph 0.00 in Rain , Thunderstorm Light Thunderstorms and Rain
3:53 PM 73.9 °F - 61.0 °F 64% 29.75 in 10.0 mi WSW 5.8 mph - 0.00 in Thunderstorm Clear
4:01 PM 75.2 °F - 62.6 °F 65% 29.78 in 10.0 mi West 8.1 mph - N/A   Clear
4:32 PM 75.2 °F - 64.4 °F 69% 29.76 in 10.0 mi WSW 5.8 mph - N/A Thunderstorm Partly Cloudy
4:53 PM 75.9 °F - 63.0 °F 64% 29.76 in 10.0 mi WSW 8.1 mph - N/A   Clear
5:53 PM 77.0 °F - 64.9 °F 66% 29.74 in 10.0 mi SW 6.9 mph - N/A   Clear
6:53 PM 80.1 °F 82.3 °F 66.9 °F 64% 29.73 in 10.0 mi WSW 9.2 mph - N/A   Clear
7:53 PM 79.0 °F - 66.9 °F 66% 29.73 in 10.0 mi WSW 6.9 mph - N/A   Mostly Cloudy
8:53 PM 78.1 °F - 69.1 °F 74% 29.74 in 10.0 mi West 4.6 mph - N/A   Scattered Clouds
9:53 PM 77.0 °F - 66.0 °F 69% 29.77 in 10.0 mi NNW 10.4 mph - N/A   Overcast
10:53 PM 73.0 °F - 64.9 °F 76% 29.81 in 10.0 mi NNW 13.8 mph 20.7 mph N/A   Mostly Cloudy
11:53 PM 70.0 °F - 62.1 °F 76% 29.82 in 10.0 mi NNW 10.4 mph - N/A   Clear